NEE-01 PEGASO

Last updated on Wed Nov 05 2025 00:03:47 GMT+0000 (Coordinated Universal Time)

1 39151U 13018B 25308.33356040 .00004289 00000+0 42907-3 0 9991 2 39151 98.0934 80.7645 0013049 179.6913 180.4315 14.91932316677154
UTC large
Height (km)
Speed (km/s)
/
Latitude / Longitude
Inclination (degrees)
Orbital Period (minutes)
Azimuth
Elevation
Range (km)
Doppler Factor

Next 0 passes for location: London (51.5072 / 0.1276)

Sorry there are no passes over London.